Terre Haute, IN

9:30 PM EDT on September 24, 2017 (GMT -0400)
Terre Haute International-Hulman

Weather History for KHUF - March, 2014

Change the Weather History Date:

Saturday, March 29, 2014

  Actual Average Record
Temperature  
Mean Temperature 37 °F 48 °F  
Max Temperature 42 °F 59 °F 81 °F (1985)
Min Temperature 32 °F 37 °F 21 °F (1964)
Degree Days  
Heating Degree Days 28 18  
Month to date heating degree days 824 657  
Since 1 July heating degree days 5559 4820  
Cooling Degree Days 0 0  
Month to date cooling degree days 0 0  
Year to date cooling degree days 0 0  
Moisture  
Dew Point 33 °F    
Average Humidity 83    
Maximum Humidity 92    
Minimum Humidity 73    
Precipitation  
Precipitation 0.36 in 0.13 in 0.93 in (1975)
Month to date precipitation 1.75 3.12  
Year to date precipitation 5.78 7.41  
Sea Level Pressure  
Sea Level Pressure 30.13 in    
Wind  
Wind Speed 10 mph (North)    
Max Wind Speed 17 mph    
Max Gust Speed 22 mph    
Visibility 7 miles    
Events Rain    
T = Trace of Precipitation, MM = Missing Value Source: NWS Daily Summary

Daily Weather History Graph

Daily Weather History Graph

Search for Another Location

Airport or City:

Trip Planner

Search our weather history database for the weather conditions in past years. The results will help you decide how hot, cold, wet, or windy it might be!

Date:

Astronomy

Mar. 29, 2014 Rise Set
Actual Time 7:38 AM EDT 8:10 PM EDT
Civil Twilight 7:11 AM EDT 8:37 PM EDT
Nautical Twilight 6:39 AM EDT 9:09 PM EDT
Astronomical Twilight 6:07 AM EDT 9:41 PM EDT
Moon 6:46 AM EDT (3/29) 7:15 PM EDT (3/29)
Length of Visible Light 13h 25m
Length of Day
12h 31m
Waning Crescent, 2% of the Moon is Illuminated
Mar 29
Waning Crescent
Mar 30
New
Apr 7
First Quarter
Apr 15
Full
Apr 22
Last Quarter

Hourly Weather History & Observations

Time (EDT) Temp. Windchill Dew Point Humidity Pressure Visibility Wind Dir Wind Speed Gust Speed Precip Events Conditions
12:53 AM 42.1 °F 37.1 °F 35.1 °F 76% 30.11 in 10.0 mi NNE 8.1 mph - N/A   Clear
1:53 AM 41.0 °F 33.5 °F 34.0 °F 76% 30.09 in 10.0 mi NE 13.8 mph - N/A   Clear
2:53 AM 39.9 °F 35.1 °F 33.1 °F 77% 30.10 in 10.0 mi NNE 6.9 mph - N/A   Scattered Clouds
3:53 AM 39.0 °F 32.8 °F 32.0 °F 76% 30.10 in 10.0 mi North 9.2 mph - 0.00 in Rain Light Rain
4:53 AM 37.0 °F 30.4 °F 32.0 °F 82% 30.08 in 5.0 mi North 9.2 mph - 0.04 in Rain Light Rain
5:53 AM 36.0 °F 28.5 °F 33.1 °F 89% 30.07 in 4.0 mi North 10.4 mph - 0.12 in Rain Rain
6:41 AM 35.1 °F 27.9 °F 33.1 °F 92% 30.05 in 4.0 mi NNE 9.2 mph - 0.08 in Rain Light Rain
6:53 AM 35.1 °F 26.9 °F 33.1 °F 92% 30.05 in 4.0 mi NNE 11.5 mph - 0.10 in Rain Light Rain
7:38 AM 35.1 °F 27.9 °F 33.1 °F 92% 30.04 in 5.0 mi NNE 9.2 mph - 0.06 in Rain Light Rain
7:53 AM 35.1 °F 27.4 °F 33.1 °F 92% 30.06 in 4.0 mi North 10.4 mph - 0.07 in Rain Light Rain
8:53 AM 35.1 °F 26.9 °F 33.1 °F 92% 30.08 in 4.0 mi North 11.5 mph - 0.02 in Rain Light Rain
9:53 AM 36.0 °F 29.0 °F 33.1 °F 89% 30.09 in 4.0 mi North 9.2 mph - 0.00 in   Overcast
10:53 AM 36.0 °F 27.5 °F 33.1 °F 89% 30.11 in 4.0 mi NW 12.7 mph - 0.01 in   Overcast
11:53 AM 36.0 °F 27.5 °F 33.1 °F 89% 30.12 in 5.0 mi North 12.7 mph 21.9 mph N/A   Overcast
12:53 PM 37.0 °F 29.3 °F 34.0 °F 89% 30.11 in 6.0 mi North 11.5 mph - N/A   Overcast
1:53 PM 37.9 °F 30.9 °F 34.0 °F 86% 30.10 in 6.0 mi North 10.4 mph - N/A   Overcast
2:43 PM 39.0 °F 31.8 °F 34.0 °F 82% 30.10 in 7.0 mi NNW 11.5 mph - N/A   Overcast
2:53 PM 39.0 °F 31.0 °F 35.1 °F 86% 30.11 in 7.0 mi North 13.8 mph 20.7 mph N/A   Overcast
3:53 PM 39.0 °F 30.6 °F 34.0 °F 82% 30.11 in 7.0 mi NNW 15.0 mph - N/A   Overcast
4:53 PM 39.9 °F 34.5 °F 35.1 °F 83% 30.13 in 6.0 mi NNW 8.1 mph - N/A   Haze
5:53 PM 39.9 °F 33.4 °F 35.1 °F 83% 30.14 in 5.0 mi NNW 10.4 mph - N/A   Haze
6:34 PM 39.9 °F 32.1 °F 34.0 °F 79% 30.15 in 6.0 mi NNW 13.8 mph - N/A   Haze
6:53 PM 39.9 °F 32.5 °F 34.0 °F 79% 30.17 in 7.0 mi NNW 12.7 mph - N/A   Overcast
7:53 PM 39.9 °F 34.5 °F 34.0 °F 79% 30.20 in 8.0 mi NNW 8.1 mph - N/A   Overcast
8:53 PM 39.0 °F 32.8 °F 32.0 °F 76% 30.22 in 10.0 mi North 9.2 mph - N/A   Overcast
9:53 PM 37.9 °F 30.5 °F 30.0 °F 73% 30.24 in 10.0 mi NNW 11.5 mph - N/A   Overcast
10:49 PM 35.6 °F 29.2 °F 28.4 °F 75% 30.23 in 10.0 mi North 8.1 mph - N/A   Scattered Clouds
10:53 PM 36.0 °F 28.5 °F 28.0 °F 73% 30.25 in 10.0 mi North 10.4 mph - N/A   Partly Cloudy
11:53 PM 34.0 °F 28.8 °F 27.0 °F 75% 30.25 in 10.0 mi NNW 5.8 mph - N/A   Clear